This demonstration page uses our WeatherBlox Daily Observations layout. Learn more.

Left ArrowRight Arrow

38.83388, -104.82136

Hourly Observations for January 25, 2021

Temp ( °F °C ) Dew Point ( °F °C ) Humidity (%) Winds ( mph kmh ) Pressure ( in mb ) Visibility ( mi km ) Precip ( " mm )
12:28 am 00:28 Mostly Cloudy with Freezing Fog 19 -7 19 -7 100 100 S 9 15 29.38 995 1 1 0.00 0.00
12:58 am 00:58 Mostly Cloudy with Freezing Fog 20 -6.7 20 -6.7 100 100 SE 5 7 29.39 995 1 1 0.00 0.00
1:58 am 01:58 Mostly Cloudy with Mist and Fog 20 -6.6 20 -6.6 100 100 Calm 29.37 995 1 2 0.00 0.00
2:28 am 02:28 Mostly Cloudy with Mist and Fog 19 -7 19 -7 100 100 Calm 29.37 995 1 2 0.00 0.00
2:38 am 02:38 Cloudy with Mist and Fog 19 -7 19 -7 100 100 Calm 29.37 995 5 8 0.00 0.00
2:58 am 02:58 Cloudy with Mist and Fog 20 -6.7 20 -6.7 100 100 N 5 7 29.36 994 1 1 0.01 0.25
3:13 am 03:13 Cloudy with Mist and Fog 21 -6 21 -6 100 100 N 9 15 29.35 994 7 11 0.00 0.00
3:28 am 03:28 Cloudy with Mist and Fog 21 -6 21 -6 100 100 N 14 22 29.35 994 1 2 0.00 0.00
3:58 am 03:58 Cloudy with Mist and Fog 21 -6.1 21 -6.2 99 99 N 7 11 29.34 994 4 6 0.00 0.00
4:58 am 04:58 Cloudy with Mist and Fog 21 -6.2 21 -6.1 100 100 Calm 29.34 994 6 10 0.01 0.25
5:58 am 05:58 Mostly Cloudy 21 -6 21 -6 100 100 N 3 6 29.35 994 10 16 0.00 0.00
6:58 am 06:58 Cloudy 27 -3 15 -9.2 63 63 N 9 15 29.37 995 10 16 0.00 0.00
7:58 am 07:58 Mostly Cloudy 26 -3.3 15 -9.5 63 63 N 9 15 29.40 996 10 16 0.00 0.00
8:58 am 08:58 Partly Cloudy 27 -2.9 12 -11.1 54 54 NNW 12 19 29.40 996 10 16 0.00 0.00
9:58 am 09:58 Sunny 29 -1.4 12 -11 48 48 N 14 22 29.39 995 10 16 0.02 0.51
10:58 am 10:58 Sunny 29 -1.7 15 -9.3 57 57 N 10 17 29.38 995 10 16 0.00 0.00
11:58 am 11:58 Mostly Cloudy 29 -1.4 14 -9.9 53 53 NNE 7 11 29.34 994 10 16 0.00 0.00
12:58 pm 12:58 Cloudy 29 -1.8 15 -9.2 57 57 Calm 29.35 994 10 16 0.00 0.00
1:53 pm 13:53 Cloudy with Haze 28 -2 18 -8 64 64 W 3 6 29.37 995 4 6 0.00 0.00
1:58 pm 13:58 Cloudy with Haze 28 -2.3 18 -7.8 66 66 W 5 7 29.37 995 3 4 0.00 0.00
2:48 pm 14:48 Cloudy 27 -3 21 -6 80 80 SSE 7 11 29.40 996 10 16 0.00 0.00
2:58 pm 14:58 Cloudy with Haze 27 -2.9 22 -5.6 82 82 S 7 11 29.40 996 4 6 0.00 0.00
3:03 pm 15:03 Cloudy with Haze 27 -3 23 -5 86 86 S 6 9 29.40 996 3 5 0.00 0.00
3:18 pm 15:18 Cloudy with Mist and Fog 27 -3 23 -5 86 86 Calm 29.42 996 5 8 0.00 0.00
3:23 pm 15:23 Cloudy with Freezing Fog 25 -4 23 -5 93 93 Calm 29.42 996 1 1 0.00 0.00
3:38 pm 15:38 Mostly Cloudy with Freezing Fog 25 -4 23 -5 93 93 SSE 3 6 29.43 997 0 0 0.00 0.00
3:58 pm 15:58 Mostly Cloudy with Freezing Fog 25 -3.9 24 -4.6 95 95 Calm 29.43 997 0 0 0.02 0.51
4:03 pm 16:03 Mostly Cloudy with Freezing Fog 25 -4 25 -4 100 100 Calm 29.43 997 1 2 0.00 0.00
4:23 pm 16:23 Cloudy with Freezing Fog 25 -4 25 -4 100 100 Calm 29.43 997 0 0 0.00 0.00
4:43 pm 16:43 Cloudy with Freezing Fog 25 -4 25 -4 100 100 Calm 29.44 997 3 5 0.00 0.00
4:47 pm 16:47 Cloudy with Heavy Snow 25 -4 25 -4 100 100 Calm 29.44 997 3 5 0.00 0.00
4:48 pm 16:48 Cloudy with Freezing Fog 25 -4 25 -4 100 100 Calm 29.44 997 3 5 0.00 0.00
4:58 pm 16:58 Cloudy with Freezing Fog 24 -4.2 24 -4.4 99 99 Calm 29.44 997 3 5 0.04 1.02
5:16 pm 17:16 Cloudy with Mist and Fog 25 -4 25 -4 100 100 Calm 29.45 997 1 2 0.00 0.00
5:33 pm 17:33 Mostly Cloudy with Mist and Fog 25 -4 25 -4 100 100 Calm 29.46 998 1 1 0.00 0.00
5:38 pm 17:38 Mostly Cloudy with Freezing Fog 25 -4 25 -4 100 100 Calm 29.46 998 3 5 0.00 0.00
5:43 pm 17:43 Mostly Cloudy with Freezing Fog 25 -4 25 -4 100 100 Calm 29.46 998 3 5 0.00 0.00
5:58 pm 17:58 Mostly Cloudy with Freezing Fog 24 -4.7 24 -4.7 100 100 Calm 29.47 998 1 1 0.02 0.51
6:03 pm 18:03 Mostly Cloudy with Freezing Fog 23 -5 23 -5 100 100 Calm 29.47 998 3 5 0.00 0.00
6:08 pm 18:08 Mostly Cloudy with Freezing Fog 23 -5 23 -5 100 100 NE 3 6 29.47 998 0 0 0.00 0.00
6:13 pm 18:13 Mostly Cloudy with Freezing Fog 23 -5 23 -5 100 100 Calm 29.47 998 0 0 0.00 0.00
6:18 pm 18:18 Mostly Cloudy with Freezing Fog 23 -5 23 -5 100 100 Calm 29.47 998 0 0 0.00 0.00
6:23 pm 18:23 Cloudy with Freezing Fog 23 -5 23 -5 100 100 Calm 29.47 998 0 0 0.00 0.00
6:58 pm 18:58 Mostly Cloudy with Mist and Fog 22 -5.4 22 -5.4 100 100 Calm 29.47 998 1 2 0.02 0.51
7:13 pm 19:13 Cloudy with Mist and Fog 23 -5 23 -5 100 100 Calm 29.47 998 3 5 0.00 0.00
7:33 pm 19:33 Mostly Cloudy with Freezing Fog 21 -6 21 -6 100 100 Calm 29.48 998 0 0 0.00 0.00
7:48 pm 19:48 Mostly Cloudy with Mist and Fog 21 -6 21 -6 100 100 Calm 29.48 998 7 11 0.00 0.00
7:58 pm 19:58 Mostly Cloudy with Freezing Fog 21 -6.1 21 -6.2 99 99 Calm 29.48 998 1 1 0.01 0.25
8:58 pm 20:58 Mostly Cloudy with Freezing Fog 20 -6.7 20 -6.7 100 100 S 3 6 29.50 999 0 0 0.01 0.25
9:58 pm 21:58 Mostly Cloudy with Freezing Fog 20 -6.9 19 -7 99 99 SSE 5 7 29.47 998 1 2 0.01 0.25
10:58 pm 22:58 Mostly Cloudy with Freezing Fog 19 -7 19 -7.1 99 99 SSE 5 7 29.49 999 1 2 0.00 0.00
11:58 pm 23:58 Mostly Cloudy with Freezing Fog 19 -7.4 18 -7.6 98 98 SSE 8 13 29.49 999 N/A 0.00 0.00

Powered by AerisWeather